Terug naar catalogus

STARLINK-6253

ActiefCommunicatieVLEO
NORAD 57083·PAYLOAD·🇺🇸 United States

Gelanceerd Jun 22, 2023 vanaf Vandenberg Space Force Base

Loading…

Volgende Passages (komende 24 uur)

TLE

VersSource: CelesTrak SupGP

Epoch: Sep 14, 2026, 21:48 UTC

1 57083C 23088AM  26257.90881944  .00010684  00000+0  38700-3 0  2575
2 57083  43.0004 107.5516 0001315 252.7509 281.0940 15.27571363    16

Volg STARLINK-6253 in realtime met AllMySat

Download on the App Store